• In Hungary
  • List of Countries
  • For 7 days
  • Water Temperature
  • Satellite Maps
  • Weather Map
  • News
  • Weather Widgets
  • user-avatar
    Login

    Hourly Weather Kicznia

    Today, 24 November, Friday

    Time Temperature Precipitation Wind Pressure Humidity
    00:00 +2°C° 0 mm 2 mps 721 mmHg 86%
    01:00 +1°C° 0 mm 2 mps 721 mmHg 85%
    02:00 +2°C° 0 mm 2 mps 721 mmHg 84%
    03:00 +2°C° 0 mm 2 mps 721 mmHg 84%
    04:00 +2°C° 0 mm 2 mps 721 mmHg 84%
    05:00 +2°C° 0 mm 2 mps 721 mmHg 84%
    06:00 +2°C° 0 mm 2 mps 721 mmHg 84%
    07:00 +3°C° 0 mm 1 mps 721 mmHg 82%
    08:00 +4°C° 0 mm 1 mps 721 mmHg 78%
    09:00 +5°C° 0 mm 2 mps 721 mmHg 74%
    10:00 +7°C° 0 mm 2 mps 722 mmHg 70%
    11:00 +8°C° 0 mm 2 mps 722 mmHg 69%
    12:00 +9°C° 0 mm 2 mps 721 mmHg 69%
    13:00 +10°C° 0 mm 2 mps 721 mmHg 68%
    14:00 +8°C° 0 mm 2 mps 721 mmHg 74%
    15:00 +7°C° 0 mm 2 mps 721 mmHg 80%
    16:00 +6°C° 0 mm 2 mps 721 mmHg 86%
    17:00 +6°C° 0 mm 2 mps 721 mmHg 86%
    18:00 +5°C° 0 mm 2 mps 721 mmHg 87%
    19:00 +5°C° 0 mm 2 mps 721 mmHg 87%
    20:00 +5°C° 0 mm 2 mps 721 mmHg 87%
    21:00 +5°C° 0 mm 2 mps 721 mmHg 86%
    22:00 +5°C° 0 mm 2 mps 721 mmHg 86%
    23:00 +5°C° 0 mm 2 mps 721 mmHg 86%

    Tomorrow, 25 November, Saturday

    Time Temperature Precipitation Wind Pressure Humidity
    00:00 +5°C° 0 mm 2 mps 721 mmHg 86%
    01:00 +5°C° 0 mm 2 mps 721 mmHg 86%
    02:00 +5°C° 0 mm 2 mps 721 mmHg 87%
    03:00 +5°C° 0 mm 2 mps 721 mmHg 88%
    04:00 +5°C° 0 mm 2 mps 721 mmHg 89%
    05:00 +5°C° 0 mm 2 mps 720 mmHg 90%
    06:00 +4°C° 0 mm 3 mps 720 mmHg 90%
    07:00 +4°C° 0 mm 3 mps 719 mmHg 90%
    08:00 +5°C° 0 mm 3 mps 719 mmHg 86%
    09:00 +6°C° 0 mm 4 mps 719 mmHg 82%
    10:00 +7°C° 0 mm 4 mps 718 mmHg 77%
    11:00 +7°C° 0 mm 5 mps 718 mmHg 76%
    12:00 +7°C° 0 mm 5 mps 717 mmHg 74%
    13:00 +8°C° 0 mm 5 mps 716 mmHg 72%
    14:00 +7°C° 0 mm 5 mps 716 mmHg 75%
    15:00 +7°C° 0 mm 5 mps 716 mmHg 77%
    16:00 +6°C° 0 mm 4 mps 715 mmHg 79%
    17:00 +6°C° 0.1 mm 4 mps 715 mmHg 80%
    18:00 +6°C° 0.1 mm 4 mps 715 mmHg 81%
    19:00 +6°C° 0.1 mm 4 mps 715 mmHg 83%
    20:00 +6°C° 0.1 mm 4 mps 715 mmHg 83%
    21:00 +7°C° 0.1 mm 3 mps 715 mmHg 84%
    22:00 +7°C° 0.1 mm 3 mps 715 mmHg 85%
    23:00 +7°C° 0 mm 3 mps 716 mmHg 87%

    Day after tomorrow, 26 November, Sunday

    Time Temperature Precipitation Wind Pressure Humidity
    00:00 +6°C° 0 mm 2 mps 716 mmHg 88%
    01:00 +6°C° 0 mm 2 mps 716 mmHg 89%
    02:00 +6°C° 0.2 mm 2 mps 716 mmHg 90%
    03:00 +5°C° 0.2 mm 2 mps 717 mmHg 90%
    04:00 +5°C° 0.2 mm 2 mps 717 mmHg 90%
    05:00 +5°C° 1.1 mm 2 mps 717 mmHg 90%
    06:00 +4°C° 1.1 mm 2 mps 718 mmHg 90%
    07:00 +3°C° 1.1 mm 3 mps 718 mmHg 89%
    08:00 +3°C° 0.6 mm 3 mps 719 mmHg 88%
    09:00 +2°C° 0.6 mm 3 mps 720 mmHg 87%
    10:00 +2°C° 0.6 mm 3 mps 720 mmHg 86%
    11:00 +2°C° 0.4 mm 3 mps 720 mmHg 85%
    12:00 +2°C° 0.4 mm 3 mps 720 mmHg 85%
    13:00 +2°C° 0.4 mm 3 mps 720 mmHg 84%
    14:00 +2°C° 0.3 mm 3 mps 721 mmHg 85%
    15:00 +1°C° 0.3 mm 3 mps 721 mmHg 85%
    16:00 +1°C° 0.3 mm 3 mps 721 mmHg 85%
    17:00 +1°C° 0.1 mm 3 mps 721 mmHg 86%
    18:00 0°C° 0.1 mm 3 mps 722 mmHg 87%
    19:00 0°C° 0.1 mm 3 mps 722 mmHg 87%
    20:00 0°C° 0 mm 3 mps 722 mmHg 87%
    21:00 0°C° 0 mm 3 mps 723 mmHg 88%
    22:00 0°C° 0 mm 3 mps 723 mmHg 88%
    23:00 -1°C° 0 mm 3 mps 723 mmHg 89%

    27 November, Monday

    Time Temperature Precipitation Wind Pressure Humidity
    00:00 -2°C° 0 mm 3 mps 723 mmHg 90%
    01:00 -2°C° 0 mm 2 mps 723 mmHg 91%
    02:00 -2°C° 0 mm 3 mps 723 mmHg 90%
    03:00 -2°C° 0 mm 3 mps 724 mmHg 90%
    04:00 -2°C° 0 mm 3 mps 724 mmHg 89%
    05:00 -2°C° 0 mm 2 mps 724 mmHg 89%
    06:00 -3°C° 0 mm 2 mps 724 mmHg 90%
    07:00 -3°C° 0 mm 2 mps 724 mmHg 90%
    08:00 -2°C° 0 mm 2 mps 725 mmHg 85%
    09:00 -1°C° 0 mm 2 mps 725 mmHg 80%
    10:00 0°C° 0 mm 3 mps 725 mmHg 75%
    11:00 0°C° 0 mm 3 mps 725 mmHg 73%
    12:00 +1°C° 0 mm 3 mps 725 mmHg 72%
    13:00 +1°C° 0 mm 3 mps 725 mmHg 70%
    14:00 +1°C° 0 mm 3 mps 725 mmHg 75%
    15:00 +1°C° 0 mm 2 mps 725 mmHg 80%
    16:00 -1°C° 0 mm 2 mps 724 mmHg 85%
    17:00 -1°C° 0 mm 2 mps 725 mmHg 86%
    18:00 0°C° 0 mm 1 mps 725 mmHg 88%
    19:00 0°C° 0 mm 1 mps 725 mmHg 89%
    20:00 0°C° 0 mm 1 mps 725 mmHg 89%
    21:00 0°C° 0 mm 1 mps 725 mmHg 89%
    22:00 -1°C° 0 mm 1 mps 724 mmHg 89%
    23:00 -1°C° 0 mm 1 mps 724 mmHg 89%

    28 November, Tuesday

    Time Temperature Precipitation Wind Pressure Humidity
    00:00 -1°C° 0 mm 1 mps 724 mmHg 89%
    01:00 -1°C° 0 mm 1 mps 723 mmHg 89%
    02:00 -1°C° 0 mm 1 mps 723 mmHg 89%
    03:00 -2°C° 0 mm 1 mps 723 mmHg 89%
    04:00 -2°C° 0 mm 1 mps 722 mmHg 89%
    05:00 -2°C° 0 mm 1 mps 722 mmHg 88%
    06:00 -2°C° 0 mm 1 mps 722 mmHg 87%
    07:00 -2°C° 0 mm 1 mps 722 mmHg 87%
    08:00 0°C° 0 mm 1 mps 722 mmHg 81%
    09:00 +1°C° 0 mm 1 mps 722 mmHg 75%
    10:00 +2°C° 0 mm 1 mps 722 mmHg 69%
    11:00 +3°C° 0 mm 1 mps 721 mmHg 66%
    12:00 +4°C° 0 mm 1 mps 720 mmHg 64%
    13:00 +5°C° 0 mm 1 mps 720 mmHg 61%
    14:00 +3°C° 0 mm 1 mps 719 mmHg 67%
    15:00 +2°C° 0 mm 1 mps 719 mmHg 73%
    16:00 0°C° 0 mm 1 mps 718 mmHg 79%
    17:00 0°C° 0 mm 1 mps 718 mmHg 80%
    18:00 -2°C° 0 mm 2 mps 718 mmHg 81%
    19:00 -3°C° 0 mm 2 mps 718 mmHg 82%
    20:00 -3°C° 0 mm 2 mps 718 mmHg 81%
    21:00 -3°C° 0 mm 2 mps 717 mmHg 80%
    22:00 -3°C° 0 mm 2 mps 717 mmHg 78%
    23:00 -3°C° 0 mm 2 mps 717 mmHg 77%

    29 November, Wednesday

    Time Temperature Precipitation Wind Pressure Humidity
    00:00 -3°C° 0 mm 2 mps 717 mmHg 76%
    01:00 -3°C° 0 mm 2 mps 716 mmHg 74%
    02:00 -3°C° 0 mm 2 mps 716 mmHg 74%
    03:00 -3°C° 0 mm 2 mps 716 mmHg 73%
    04:00 -3°C° 0 mm 2 mps 715 mmHg 72%
    05:00 -3°C° 0 mm 2 mps 715 mmHg 72%
    06:00 -3°C° 0 mm 2 mps 715 mmHg 71%
    07:00 -3°C° 0 mm 2 mps 715 mmHg 71%
    08:00 -2°C° 0 mm 2 mps 715 mmHg 67%
    09:00 -1°C° 0 mm 3 mps 715 mmHg 64%
    10:00 0°C° 0 mm 3 mps 715 mmHg 60%
    11:00 +1°C° 0 mm 3 mps 715 mmHg 60%
    12:00 +1°C° 0 mm 3 mps 714 mmHg 59%
    13:00 +1°C° 0 mm 3 mps 714 mmHg 59%
    14:00 0°C° 0 mm 3 mps 714 mmHg 65%
    15:00 -1°C° 0 mm 3 mps 714 mmHg 72%
    16:00 -2°C° 0 mm 2 mps 714 mmHg 78%
    17:00 -2°C° 0 mm 2 mps 714 mmHg 81%
    18:00 -3°C° 0 mm 2 mps 714 mmHg 83%
    19:00 -3°C° 0 mm 2 mps 714 mmHg 86%
    20:00 -3°C° 0 mm 2 mps 714 mmHg 86%
    21:00 -3°C° 0 mm 2 mps 714 mmHg 86%
    22:00 -3°C° 0 mm 2 mps 714 mmHg 85%
    23:00 -2°C° 0.1 mm 2 mps 714 mmHg 85%
    Show more